Regional Weather Roundup
Issued by NWS

Home | Current Version | Previous Version | Graphics & Text | Print | Product List | Glossary On
Versions: 1 2 3 4 5 6 7 8 9 10 11 12 13 14 15 16 17 18 19 20 21 22 23 24 25 26 27 28 29 30 31 32 33 34 35 36 37 38 39 40 41 42 43 44 45 46 47 48 49 50
000
ASUS43 KLSX 201559
RWRMO

WEATHER SUMMARY FOR MISSOURI
NATIONAL WEATHER SERVICE SPRINGFIELD MO
1100 AM CDT MON APR 20 2015

NOTE: "FAIR" INDICATES FEW OR NO CLOUDS BELOW 12,000 FEET WITH NO
       SIGNIFICANT WEATHER AND/OR OBSTRUCTIONS TO VISIBILITY.
       CURRENT SKY AND/OR WEATHER CONDITIONS ARE NOT AVAILABLE FOR
       CHILLICOTHE AND FARMINGTON.

MOZ001>031-035>038-043-044-053-054-201700-
...NORTHERN AND WESTERN MISSOURI...

CITY           SKY/WX    TMP DP  RH WIND       PRES   REMARKS
KANSAS CTY INT PTSUNNY   49  33  54 NW20G30   29.84R
KANSAS C DTWN  LGT RAIN  52  32  46 NW17G28   29.84R
LEE`S SUMMIT   PTSUNNY   50  32  50 NW20G33   29.85R
ST JOSEPH      PTSUNNY   52  35  52 NW22      29.84R
CHILLICOTHE      N/A     51  34  52 NW15G29   29.79R
KIRKSVILLE     LGT RAIN  47  36  65 NW15G28   29.72R

$$
MOZ066>068-077>081-088>096-101>105-201700-
...SOUTHWEST MISSOURI...

CITY           SKY/WX    TMP DP  RH WIND       PRES   REMARKS
SPRINGFIELD    MOSUNNY   53  35  50 W15G29    29.85R
JOPLIN         MOSUNNY   54  37  52 NW17G29   29.92R

$$
MOZ032>034-039>042-045>050-055>058-069>072-201700-
...CENTRAL MISSOURI...

CITY           SKY/WX    TMP DP  RH WIND       PRES   REMARKS
COLUMBIA       CLOUDY    50  35  56 NW18G28   29.76R
JEFFERSON CITY PTSUNNY   53  34  48 W23G33    29.77R
ROLLA          PTSUNNY   52  35  52 W21G28    29.75R
SEDALIA        PTSUNNY   51  37  58 NW18G26   29.81R
OSAGE BEACH    PTSUNNY   55  32  41 NW9G24    29.79S

$$
MOZ051-052-059>065-201700-
...EAST CENTRAL MISSOURI...

CITY           SKY/WX    TMP DP  RH WIND       PRES   REMARKS
ST LOUIS INTL  PTSUNNY   57  39  51 W18G35    29.69R
SPIRIT OF STL  PTSUNNY   53  37  54 W18G29    29.70R
ST CHARLES     CLOUDY    52  38  58 W23       29.68R

$$
MOZ072>076-082>087-097>100-106>115-201700-
...SOUTH CENTRAL AND SOUTHEAST MISSOURI...

CITY           SKY/WX    TMP DP  RH WIND       PRES   REMARKS
CAPE GIRARDEAU MOSUNNY   60  41  49 NW16G26   29.72R
FARMINGTON     PTSUNNY   55  36  47 W15G23    29.75R
POPLAR BLUFF   LGT RAIN  61  39  44 NW16G23   29.75R
WEST PLAINS    MOSUNNY   56  36  47 NW14G26   29.81R

$$


USA.gov is the U.S. government's official web portal to all federal, state and local government web resources and services.